GW4542 Weather Reports


Display with metric or nautical units.
time (UTC)temp
F
wind
direction
speed
MPH
gust
MPH
rain 1hr
in
rain 24hr
in
rain mn
in
humidity
%
barometer
mb
20260508100305 45 205 1.0 1.0 0.00 0.00 0.00 42 1019.6
20260508095800 46 205 2.0 3.0 0.00 0.00 0.00 40 1019.6
20260508095258 46 281 4.0 4.0 0.00 0.00 0.00 40 1019.3
20260508094755 46 252 4.0 4.0 0.00 0.00 0.00 39 1019.2
20260508094252 47 246 3.0 3.0 0.00 0.00 0.00 39 1019.2
20260508093749 47 262 6.0 8.0 0.00 0.00 0.00 39 1019.3
20260508093247 46 270 6.0 7.0 0.00 0.00 0.00 38 1019.3
20260508092743 46 189 1.0 1.0 0.00 0.00 0.00 40 1019.5
20260508092241 46 194 1.0 1.0 0.00 0.00 0.00 40 1019.3
20260508091739 47 270 4.0 6.0 0.00 0.00 0.00 38 1019.5
20260508091236 47 229 4.0 4.0 0.00 0.00 0.00 38 1019.5
20260508090734 48 245 3.0 4.0 0.00 0.00 0.00 38 1019.5
20260508090231 48 259 5.0 6.0 0.00 0.00 0.00 38 1019.3
20260508085727 48 215 4.0 6.0 0.00 0.00 0.00 37 1019.3
20260508085224 49 227 4.0 4.0 0.00 0.00 0.00 37 1019.5
20260508084720 49 241 5.0 6.0 0.00 0.00 0.00 37 1019.3
20260508084218 49 237 5.0 6.0 0.00 0.00 0.00 35 1019.6
20260508083715 49 255 7.0 9.0 0.00 0.00 0.00 35 1019.6
20260508083213 48 248 6.0 8.0 0.00 0.00 0.00 36 1019.7
20260508082707 49 261 7.0 9.0 0.00 0.00 0.00 36 1019.8
20260508082205 49 283 6.0 8.0 0.00 0.00 0.00 37 1019.8
20260508081702 50 258 8.0 9.0 0.00 0.00 0.00 36 1020.0
20260508081158 49 285 6.0 8.0 0.00 0.00 0.00 35 1019.6
20260508080656 49 246 5.0 6.0 0.00 0.00 0.00 35 1020.0
20260508080154 50 278 7.0 8.0 0.00 0.00 0.00 35 1019.7
20260508075650 50 265 7.0 8.0 0.00 0.00 0.00 35 1019.6
20260508075147 50 249 8.0 9.0 0.00 0.00 0.00 34 1019.7
20260508074645 49 267 6.0 8.0 0.00 0.00 0.00 35 1020.0
20260508074142 50 281 8.0 9.0 0.00 0.00 0.00 34 1020.0
20260508073639 50 257 7.0 9.0 0.00 0.00 0.00 35 1019.7
20260508073137 50 257 5.0 7.0 0.00 0.00 0.00 35 1020.0
20260508072632 50 245 6.0 7.0 0.00 0.00 0.00 35 1020.1
20260508072129 50 258 4.0 4.0 0.00 0.00 0.00 35 1019.8
20260508071627 50 256 5.0 6.0 0.00 0.00 0.00 35 1019.8
20260508071125 50 260 4.0 4.0 0.00 0.00 0.00 35 1020.0
20260508070622 50 224 5.0 7.0 0.00 0.00 0.00 35 1019.7
20260508070121 51 273 4.0 6.0 0.00 0.00 0.00 35 1019.8
20260508065618 51 259 6.0 8.0 0.00 0.00 0.00 34 1019.6
20260508065115 51 236 3.0 4.0 0.00 0.00 0.00 34 1019.7
20260508064613 51 221 3.0 4.0 0.00 0.00 0.00 34 1019.6
20260508064111 52 234 6.0 6.0 0.00 0.00 0.00 33 1019.5
20260508063608 51 266 6.0 8.0 0.00 0.00 0.00 33 1019.6
20260508063106 51 277 6.0 7.0 0.00 0.00 0.00 34 1019.5
20260508062603 51 225 4.0 4.0 0.00 0.00 0.00 34 1019.5
20260508062100 51 252 4.0 4.0 0.00 0.00 0.00 35 1019.3
20260508061557 51 266 4.0 4.0 0.00 0.00 0.00 34 1019.5
20260508061055 52 208 5.0 7.0 0.00 0.00 0.00 33 1019.2
20260508060551 52 249 5.0 6.0 0.00 0.00 0.00 34 1019.3
20260508060049 52 268 4.0 4.0 0.00 0.00 0.00 33 1019.2
20260508055544 52 240 4.0 4.0 0.00 0.00 0.00 34 1019.2
20260508055041 52 250 4.0 6.0 0.00 0.00 0.00 33 1019.5
20260508054537 53 267 4.0 4.0 0.00 0.00 0.00 32 1019.2
20260508054035 53 252 6.0 7.0 0.00 0.00 0.00 31 1019.5
20260508053531 53 253 4.0 6.0 0.00 0.00 0.00 32 1019.2
20260508053030 53 218 5.0 6.0 0.00 0.00 0.00 31 1019.3
20260508052527 51 269 3.0 3.0 0.00 0.00 0.00 33 1019.2
20260508052023 51 198 2.0 2.0 0.00 0.00 0.00 35 1019.3
20260508051520 50 211 2.0 3.0 0.00 0.00 0.00 33 1019.1
20260508051015 51 212 2.0 2.0 0.00 0.00 0.00 34 1019.2
20260508050512 52 232 3.0 3.0 0.00 0.00 0.00 32 1019.3
20260508050009 53 225 2.0 2.0 0.00 0.00 0.00 32 1019.1
20260508045505 53 228 4.0 4.0 0.00 0.00 0.00 31 1019.1
20260508045003 51 201 2.0 2.0 0.00 0.00 0.00 35 1019.2
20260508044500 51 247 3.0 4.0 0.00 0.00 0.00 34 1019.3
20260508043955 52 197 1.0 2.0 0.00 0.00 0.00 34 1019.3
20260508043453 53 222 2.0 3.0 0.00 0.00 0.00 32 1019.1
20260508042948 50 198 1.0 1.0 0.00 0.00 0.00 35 1019.5
20260508042447 51 195 1.0 2.0 0.00 0.00 0.00 35 1018.9
20260508041944 51 191 1.0 1.0 0.00 0.00 0.00 34 1019.2
20260508041440 52 188 1.0 1.0 0.00 0.00 0.00 33 1019.2
20260508040937 53 197 2.0 2.0 0.00 0.00 0.00 32 1018.9
20260508040434 54 195 1.0 1.0 0.00 0.00 0.00 31 1019.2
20260508035932 54 214 2.0 2.0 0.00 0.00 0.00 31 1019.3
20260508035428 53 210 2.0 2.0 0.00 0.00 0.00 32 1019.1
20260508034925 52 187 1.0 1.0 0.00 0.00 0.00 32 1018.9
20260508034423 54 187 0.0 0.0 0.00 0.00 0.00 31 1019.2
20260508033919 55 189 1.0 1.0 0.00 0.00 0.00 31 1018.9
20260508033417 58 190 1.0 1.0 0.00 0.00 0.00 28 1019.1
20260508032915 57 183 0.0 1.0 0.00 0.00 0.00 29 1019.0
20260508032412 58 215 3.0 3.0 0.00 0.00 0.00 28 1018.7
20260508031908 55 188 1.0 1.0 0.00 0.00 0.00 30 1018.9
20260508031406 55 169 0.0 0.0 0.00 0.00 0.00 29 1018.6
20260508030901 56 163 1.0 1.0 0.00 0.00 0.00 29 1018.6
20260508030359 57 166 0.0 0.0 0.00 0.00 0.00 29 1018.5
20260508025856 58 164 0.0 0.0 0.00 0.00 0.00 28 1018.6
20260508025352 59 163 0.0 1.0 0.00 0.00 0.00 28 1018.7
20260508024849 59 164 0.0 0.0 0.00 0.00 0.00 28 1018.4
20260508024346 59 170 0.0 0.0 0.00 0.00 0.00 28 1018.6
20260508023838 60 115 1.0 2.0 0.00 0.00 0.00 27 1018.5
20260508023335 61 190 1.0 1.0 0.00 0.00 0.00 26 1018.2
20260508022831 62 165 0.0 1.0 0.00 0.00 0.00 26 1018.5
20260508022327 63 168 1.0 1.0 0.00 0.00 0.00 24 1018.4
20260508021824 64 182 1.0 1.0 0.00 0.00 0.00 24 1018.7
20260508021320 65 198 1.0 1.0 0.00 0.00 0.00 24 1018.5
20260508020816 65 208 4.0 4.0 0.00 0.00 0.00 23 1018.4
20260508020314 66 262 3.0 4.0 0.00 0.00 0.00 23 1018.7
20260508015810 66 253 4.0 6.0 0.00 0.00 0.00 23 1018.5
20260508015308 66 232 4.0 4.0 0.00 0.00 0.00 23 1018.4
20260508014804 66 266 7.0 10.0 0.00 0.00 0.00 23 1018.2
20260508014302 66 270 7.0 8.0 0.00 0.00 0.00 23 1018.5
20260508013757 66 208 2.0 2.0 0.00 0.00 0.00 24 1018.5
20260508013253 67 182 0.0 0.0 0.00 0.00 0.00 22 1018.2
20260508012752 68 344 8.0 11.0 0.00 0.00 0.00 23 1018.2
20260508012248 68 230 3.0 3.0 0.00 0.00 0.00 23 1018.1
20260508011746 69 184 1.0 2.0 0.00 0.00 0.00 23 1018.5
20260508011243 69 356 5.0 7.0 0.00 0.00 0.00 22 1018.1
20260508010740 69 282 3.0 3.0 0.00 0.00 0.00 22 1018.0
20260508010238 69 244 3.0 3.0 0.00 0.00 0.00 24 1018.4
20260508005735 69 198 0.0 1.0 0.00 0.00 0.00 23 1018.2
20260508005232 69 77 2.0 2.0 0.00 0.00 0.00 23 1018.4
20260508004727 70 24 4.0 4.0 0.00 0.00 0.00 23 1018.1
20260508004224 70 356 4.0 4.0 0.00 0.00 0.00 23 1018.5
20260508003720 69 134 1.0 2.0 0.00 0.00 0.00 23 1018.1
20260508003218 69 44 3.0 3.0 0.00 0.00 0.00 24 1018.1
20260508002714 69 96 2.0 2.0 0.00 0.00 0.00 23 1018.2
20260508002213 70 157 1.0 1.0 0.00 0.00 0.00 23 1018.4
20260508001708 70 84 2.0 2.0 0.00 0.00 0.00 23 1018.4
20260508001203 69 112 3.0 3.0 0.00 0.00 0.00 23 1018.1
20260508000700 69 68 3.0 4.0 0.00 0.00 0.00 24 1018.2
20260508000157 69 66 1.0 2.0 0.00 0.00 0.00 23 1018.4
20260507235654 70 101 3.0 3.0 0.00 0.00 0.00 22 1018.2
20260507235151 68 138 2.0 3.0 0.00 0.00 0.00 23 1018.1
20260507234648 69 77 4.0 6.0 0.00 0.00 0.00 23 1018.2
20260507234144 70 50 4.0 6.0 0.00 0.00 0.00 24 1018.1
20260507233641 71 92 3.0 3.0 0.00 0.00 0.00 22 1018.1
20260507233140 71 85 4.0 4.0 0.00 0.00 0.00 22 1018.4
20260507232636 72 65 5.0 9.0 0.00 0.00 0.00 22 1018.2
20260507232133 71 79 6.0 7.0 0.00 0.00 0.00 22 1018.1
20260507231629 73 32 4.0 4.0 0.00 0.00 0.00 22 1018.2
20260507231126 71 135 2.0 3.0 0.00 0.00 0.00 22 1018.1
20260507230622 69 191 1.0 1.0 0.00 0.00 0.00 24 1018.6
20260507230120 70 37 6.0 8.0 0.00 0.00 0.00 24 1018.0
20260507225614 70 117 2.0 2.0 0.00 0.00 0.00 23 1018.1
20260507225111 71 156 1.0 2.0 0.00 0.00 0.00 22 1018.4
20260507224607 72 34 7.0 9.0 0.00 0.00 0.00 23 1018.1
20260507224104 72 10 7.0 10.0 0.00 0.00 0.00 23 1018.1
20260507223600 71 87 4.0 6.0 0.00 0.00 0.00 22 1018.2
20260507223057 70 97 4.0 6.0 0.00 0.00 0.00 23 1018.4
20260507222554 71 83 3.0 4.0 0.00 0.00 0.00 22 1018.1
20260507222050 71 25 5.0 6.0 0.00 0.00 0.00 23 1018.4
20260507221547 70 50 6.0 8.0 0.00 0.00 0.00 24 1018.7
20260507221044 73 11 3.0 4.0 0.00 0.00 0.00 23 1018.6
20260507220541 73 33 7.0 9.0 0.00 0.00 0.00 23 1018.6
20260507220038 72 46 5.0 7.0 0.00 0.00 0.00 22 1018.7
20260507215534 71 13 8.0 9.0 0.00 0.00 0.00 24 1018.7
20260507215032 70 69 8.0 13.0 0.00 0.00 0.00 23 1018.7
20260507214530 68 44 6.0 8.0 0.00 0.00 0.00 24 1018.9
20260507214025 69 66 2.0 3.0 0.00 0.00 0.00 25 1019.2
20260507213521 69 149 4.0 6.0 0.00 0.00 0.00 23 1019.1
20260507213019 69 106 3.0 4.0 0.00 0.00 0.00 24 1019.1
20260507212515 71 111 3.0 7.0 0.00 0.00 0.00 22 1019.2
20260507212011 70 53 4.0 6.0 0.00 0.00 0.00 22 1019.3
20260507211508 68 52 2.0 4.0 0.00 0.00 0.00 26 1019.5
20260507211004 68 131 2.0 2.0 0.00 0.00 0.00 24 1019.5
20260507210501 67 106 4.0 6.0 0.00 0.00 0.00 24 1019.7
20260507205958 70 30 5.0 8.0 0.00 0.00 0.00 24 1020.0
20260507205455 70 26 5.0 6.0 0.00 0.00 0.00 24 1019.7
20260507204951 71 28 7.0 10.0 0.00 0.00 0.00 24 1019.6
20260507204448 68 124 6.0 7.0 0.00 0.00 0.00 26 1020.0
20260507203946 68 14 5.0 6.0 0.00 0.00 0.00 24 1019.7
20260507203443 69 23 5.0 7.0 0.00 0.00 0.00 24 1020.1
20260507202939 70 23 11.0 14.0 0.00 0.00 0.00 24 1020.1
20260507202436 69 64 7.0 9.0 0.00 0.00 0.00 23 1020.3
20260507201932 68 49 7.0 9.0 0.00 0.00 0.00 23 1020.2
20260507201427 68 31 9.0 10.0 0.00 0.00 0.00 25 1020.1
20260507200924 67 72 6.0 7.0 0.00 0.00 0.00 26 1020.3
20260507200420 67 32 8.0 11.0 0.00 0.00 0.00 24 1020.1
20260507195916 67 48 8.0 11.0 0.00 0.00 0.00 25 1020.2
20260507195414 68 44 8.0 11.0 0.00 0.00 0.00 24 1020.3
20260507194910 68 94 9.0 10.0 0.00 0.00 0.00 24 1020.4
20260507194407 69 89 4.0 6.0 0.00 0.00 0.00 24 1020.2
20260507193903 68 56 8.0 11.0 0.00 0.00 0.00 24 1020.3
20260507193401 68 81 4.0 4.0 0.00 0.00 0.00 24 1020.6
20260507192857 69 47 8.0 10.0 0.00 0.00 0.00 24 1020.7
20260507192353 67 41 9.0 10.0 0.00 0.00 0.00 24 1020.7
20260507191850 67 76 6.0 10.0 0.00 0.00 0.00 24 1020.6
20260507191346 67 73 5.0 7.0 0.00 0.00 0.00 24 1020.8
20260507190843 66 111 6.0 7.0 0.00 0.00 0.00 25 1020.8
20260507190341 67 53 7.0 8.0 0.00 0.00 0.00 25 1020.9
20260507185840 66 58 6.0 8.0 0.00 0.00 0.00 25 1020.9
20260507185336 67 87 4.0 7.0 0.00 0.00 0.00 24 1021.1
20260507184833 66 60 7.0 8.0 0.00 0.00 0.00 25 1021.2
20260507184331 65 51 4.0 4.0 0.00 0.00 0.00 26 1021.1
20260507183828 66 66 2.0 3.0 0.00 0.00 0.00 25 1021.5
20260507183325 66 77 7.0 9.0 0.00 0.00 0.00 25 1021.3
20260507182823 66 87 6.0 9.0 0.00 0.00 0.00 25 1021.3
20260507182318 65 71 7.0 8.0 0.00 0.00 0.00 25 1021.5
20260507181814 65 94 5.0 7.0 0.00 0.00 0.00 25 1021.7
20260507181310 66 70 4.0 6.0 0.00 0.00 0.00 25 1021.4
20260507180807 66 75 4.0 7.0 0.00 0.00 0.00 25 1021.7
20260507180304 65 90 5.0 7.0 0.00 0.00 0.00 26 1021.5
20260507175800 66 112 2.0 2.0 0.00 0.00 0.00 25 1021.4
20260507175257 66 63 6.0 8.0 0.00 0.00 0.00 25 1021.7
20260507174754 66 31 8.0 9.0 0.00 0.00 0.00 24 1021.7
20260507174252 66 96 3.0 3.0 0.00 0.00 0.00 25 1021.5
20260507173750 66 97 3.0 6.0 0.00 0.00 0.00 24 1021.5
20260507173246 66 163 2.0 2.0 0.00 0.00 0.00 25 1021.7
20260507172742 64 75 2.0 2.0 0.00 0.00 0.00 26 1021.9
20260507172240 64 179 1.0 1.0 0.00 0.00 0.00 26 1021.8
20260507171735 65 151 1.0 1.0 0.00 0.00 0.00 25 1021.9
20260507171232 63 143 1.0 1.0 0.00 0.00 0.00 26 1022.2
20260507170729 62 244 6.0 8.0 0.00 0.00 0.00 27 1021.9
20260507170226 62 4 3.0 3.0 0.00 0.00 0.00 27 1022.0
20260507165721 60 191 1.0 1.0 0.00 0.00 0.00 28 1022.0
20260507165218 60 247 4.0 7.0 0.00 0.00 0.00 29 1021.9
20260507164714 60 270 7.0 8.0 0.00 0.00 0.00 29 1022.0
20260507164211 60 259 6.0 7.0 0.00 0.00 0.00 29 1022.2
20260507163708 59 264 4.0 4.0 0.00 0.00 0.00 30 1022.2
20260507163206 59 248 5.0 6.0 0.00 0.00 0.00 30 1022.3
20260507162702 59 266 8.0 11.0 0.00 0.00 0.00 30 1022.2
20260507162158 58 266 8.0 9.0 0.00 0.00 0.00 30 1022.4
20260507161654 58 273 9.0 10.0 0.00 0.00 0.00 30 1022.3
20260507161151 57 278 10.0 10.0 0.00 0.00 0.00 31 1022.4
20260507160647 57 286 6.0 8.0 0.00 0.00 0.00 32 1022.5
20260507160144 56 260 4.0 4.0 0.00 0.00 0.00 32 1022.8
20260507155640 55 327 5.0 6.0 0.00 0.00 0.00 32 1022.8
20260507155137 55 273 5.0 8.0 0.00 0.00 0.00 32 1022.9
20260507154633 53 280 8.0 10.0 0.00 0.00 0.00 32 1022.9
20260507154131 53 282 7.0 10.0 0.00 0.00 0.00 33 1022.8
20260507153627 53 274 8.0 10.0 0.00 0.00 0.00 33 1023.0
20260507153123 52 261 9.0 10.0 0.00 0.00 0.00 33 1023.3
20260507152619 52 277 9.0 11.0 0.00 0.00 0.00 33 1022.8
20260507152110 51 290 9.0 10.0 0.00 0.00 0.00 33 1023.0
20260507151606 50 264 10.0 11.0 0.00 0.00 0.00 34 1022.8
20260507151103 49 266 8.0 9.0 0.00 0.00 0.00 34 1022.9
20260507150555 48 266 9.0 11.0 0.00 0.00 0.00 35 1022.9
20260507150051 48 279 11.0 15.0 0.00 0.00 0.00 35 1023.1
20260507145545 46 277 10.0 13.0 0.00 0.00 0.00 36 1023.3
20260507145044 46 283 11.0 13.0 0.00 0.00 0.00 36 1023.0
20260507144540 45 291 12.0 15.0 0.00 0.00 0.00 37 1023.1
20260507144037 44 284 12.0 15.0 0.00 0.00 0.00 37 1023.1
20260507143534 44 274 10.0 13.0 0.00 0.00 0.00 38 1023.3
20260507143032 43 268 10.0 11.0 0.00 0.00 0.00 38 1023.4
20260507142527 43 273 10.0 13.0 0.00 0.00 0.00 38 1023.1
20260507142024 43 247 12.0 16.0 0.00 0.00 0.00 38 1023.0
20260507141520 42 233 7.0 9.0 0.00 0.00 0.00 39 1023.1
20260507141017 41 277 9.0 10.0 0.00 0.00 0.00 39 1023.0
20260507140514 41 264 11.0 13.0 0.00 0.00 0.00 40 1022.9
20260507140012 40 273 12.0 15.0 0.00 0.00 0.00 40 1023.0
20260507135508 40 251 10.0 13.0 0.00 0.00 0.00 41 1022.9
20260507135006 39 232 11.0 11.0 0.00 0.00 0.00 41 1023.1
20260507134502 39 279 9.0 10.0 0.00 0.00 0.00 41 1023.1
20260507133958 39 274 10.0 11.0 0.00 0.00 0.00 41 1022.9
20260507133454 38 292 12.0 14.0 0.00 0.00 0.00 42 1023.3
20260507132952 38 261 9.0 13.0 0.00 0.00 0.00 42 1023.0
20260507132448 37 266 10.0 14.0 0.00 0.00 0.00 43 1023.0
20260507131945 36 266 14.0 16.0 0.00 0.00 0.00 43 1023.0
20260507131442 36 272 15.0 16.0 0.00 0.00 0.00 45 1023.0
20260507130939 35 272 11.0 15.0 0.00 0.00 0.00 46 1023.0
20260507130436 35 289 10.0 11.0 0.00 0.00 0.00 46 1022.8
20260507125935 35 265 12.0 15.0 0.00 0.00 0.00 45 1023.0
20260507125432 35 277 14.0 17.0 0.00 0.00 0.00 45 1022.8
20260507124929 35 281 11.0 13.0 0.00 0.00 0.00 45 1022.8
20260507124425 34 287 12.0 15.0 0.00 0.00 0.00 46 1022.8
20260507123924 35 266 12.0 15.0 0.00 0.00 0.00 45 1023.0
20260507123421 35 258 11.0 14.0 0.00 0.00 0.00 45 1022.8
20260507122917 35 279 9.0 11.0 0.00 0.00 0.00 45 1022.5
20260507122412 36 284 10.0 13.0 0.00 0.00 0.00 44 1022.7
20260507121909 36 237 10.0 11.0 0.00 0.00 0.00 43 1022.4
20260507121404 36 269 5.0 6.0 0.00 0.00 0.00 43 1022.9
20260507120901 37 233 9.0 9.0 0.00 0.00 0.00 43 1022.7
20260507120357 36 276 7.0 9.0 0.00 0.00 0.00 42 1022.7
20260507115854 36 262 6.0 8.0 0.00 0.00 0.00 43 1022.8
20260507115350 36 276 7.0 9.0 0.00 0.00 0.00 43 1022.8
20260507114846 37 256 10.0 11.0 0.00 0.00 0.00 43 1022.5
20260507114343 37 248 5.0 7.0 0.00 0.00 0.00 42 1022.9
20260507113840 37 316 8.0 8.0 0.00 0.00 0.00 41 1022.8
20260507113337 37 273 7.0 9.0 0.00 0.00 0.00 41 1022.7
20260507112835 37 275 11.0 14.0 0.00 0.00 0.00 41 1023.0
20260507112331 37 291 10.0 13.0 0.00 0.00 0.00 41 1023.0
20260507111829 37 278 10.0 10.0 0.00 0.00 0.00 40 1022.7
20260507111326 37 263 11.0 13.0 0.00 0.00 0.00 41 1022.9
20260507110822 37 267 9.0 9.0 0.00 0.00 0.00 41 1022.8
20260507110318 36 285 10.0 13.0 0.00 0.00 0.00 42 1022.7
20260507105815 37 255 9.0 11.0 0.00 0.00 0.00 41 1022.7
20260507105312 37 283 10.0 11.0 0.00 0.00 0.00 41 1023.0
20260507104809 36 272 9.0 10.0 0.00 0.00 0.00 42 1022.9
20260507104305 36 267 7.0 10.0 0.00 0.00 0.00 42 1022.9
20260507103801 37 278 10.0 11.0 0.00 0.00 0.00 41 1023.0
20260507103257 37 257 10.0 11.0 0.00 0.00 0.00 42 1023.0
20260507102754 37 267 10.0 11.0 0.00 0.00 0.00 41 1022.8
20260507102251 37 280 11.0 13.0 0.00 0.00 0.00 41 1022.9
20260507101747 37 280 11.0 11.0 0.00 0.00 0.00 41 1022.8
20260507101242 37 292 11.0 13.0 0.00 0.00 0.00 41 1022.9